Lockport-Weather Station Historical Data
Daily Summary for September 17, 2020 Units:  English    Metric   Both
Daily Weekly Monthly Yearly Custom
  High: Low: Average:
Temperature: 23.8 °F 20.7 °F 22.7 °F
Dew Point: 20.9 °F 17.4 °F 19.6 °F
Humidity: 89% 86% 88%
Wind Speed: 6.7mph 0.3mph 2.9mph
Wind Gust: 13mph - -
Wind- - ENE
Pressure: 30.30 in 30.05 in -
Precipitation: 0.00 in    
 
 
Tabular Data for September 17, 2020
Time Temperature Dew Point Pressure Wind Wind Speed Wind Gust Humidity Rainfall Rate (Hourly) solar
00:04 23.8 °F 20.8 °F 30.06 in ENE 6.7 mph 13 mph 88% 0.00 in W/m2
00:09 23.8 °F 20.8 °F 30.06 in ENE 5.5 mph 13 mph 88% 0.00 in W/m2
00:14 23.8 °F 20.8 °F 30.07 in ENE 5.2 mph 13 mph 88% 0.00 in W/m2
00:19 23.8 °F 20.8 °F 30.06 in ENE 6 mph 13 mph 88% 0.00 in W/m2
00:24 23.7 °F 20.7 °F 30.06 in ENE 5.6 mph 13 mph 88% 0.00 in W/m2
00:29 23.7 °F 20.7 °F 30.06 in ENE 5.4 mph 13 mph 88% 0.00 in W/m2
00:34 23.7 °F 20.7 °F 30.06 in ENE 5.8 mph 10 mph 88% 0.00 in W/m2
00:39 23.7 °F 20.7 °F 30.06 in ENE 5.7 mph 10 mph 88% 0.00 in W/m2
00:44 23.6 °F 20.6 °F 30.06 in ENE 4.1 mph 10 mph 88% 0.00 in W/m2
00:49 23.6 °F 20.6 °F 30.06 in ENE 6 mph 10 mph 88% 0.00 in W/m2
00:54 23.5 °F 20.5 °F 30.06 in ENE 4.8 mph 10 mph 88% 0.00 in W/m2
00:59 23.5 °F 20.5 °F 30.05 in ENE 5 mph 10 mph 88% 0.00 in W/m2
01:04 23.5 °F 20.5 °F 30.05 in ENE 5 mph 10 mph 88% 0.00 in W/m2
01:09 23.5 °F 20.5 °F 30.05 in ENE 4 mph 10 mph 88% 0.00 in W/m2
01:14 23.5 °F 20.5 °F 30.05 in ENE 3.6 mph 9 mph 88% 0.00 in W/m2
01:19 23.5 °F 20.5 °F 30.05 in ENE 4 mph 9 mph 88% 0.00 in W/m2
01:24 23.5 °F 20.5 °F 30.05 in ENE 3.6 mph 8 mph 88% 0.00 in W/m2
01:29 23.5 °F 20.5 °F 30.05 in ENE 5.3 mph 11 mph 88% 0.00 in W/m2
01:34 23.5 °F 20.5 °F 30.05 in ENE 4.7 mph 11 mph 88% 0.00 in W/m2
01:39 23.5 °F 20.5 °F 30.05 in ENE 4.5 mph 11 mph 88% 0.00 in W/m2
01:44 23.6 °F 20.7 °F 30.05 in ENE 4.8 mph 11 mph 88.6% 0.00 in W/m2
01:49 23.6 °F 20.7 °F 30.05 in ENE 3.6 mph 10 mph 88.5% 0.00 in W/m2
01:54 23.6 °F 20.7 °F 30.06 in ENE 3.5 mph 10 mph 88.6% 0.00 in W/m2
02:04 23.6 °F 20.7 °F 30.06 in ENE 3.5 mph 8 mph 88.5% 0.00 in W/m2
02:09 23.6 °F 20.7 °F 30.06 in East 3.1 mph 8 mph 88.3% 0.00 in W/m2
02:14 23.6 °F 20.6 °F 30.06 in East 2.9 mph 8 mph 88% 0.00 in W/m2
02:19 23.5 °F 20.5 °F 30.06 in East 3.5 mph 8 mph 88% 0.00 in W/m2
02:24 23.5 °F 20.5 °F 30.07 in East 3.6 mph 8 mph 88% 0.00 in W/m2
02:29 23.4 °F 20.4 °F 30.07 in East 3.4 mph 8 mph 88% 0.00 in W/m2
02:34 23.4 °F 20.4 °F 30.08 in East 4.2 mph 8 mph 88% 0.00 in W/m2
02:39 23.3 °F 20.3 °F 30.08 in East 3.5 mph 8 mph 88% 0.00 in W/m2
02:44 23.2 °F 20.2 °F 30.08 in East 3.7 mph 8 mph 88% 0.00 in W/m2
02:49 23.2 °F 20.2 °F 30.09 in East 3.8 mph 7 mph 88% 0.00 in W/m2
02:54 23.2 °F 20.2 °F 30.09 in East 4 mph 8 mph 88% 0.00 in W/m2
02:59 23.1 °F 20.1 °F 30.09 in East 4.5 mph 8 mph 88% 0.00 in W/m2
03:04 23 °F 20 °F 30.09 in ENE 4.6 mph 8 mph 88% 0.00 in W/m2
03:09 23 °F 20 °F 30.09 in ENE 3.6 mph 8 mph 88% 0.00 in W/m2
03:14 22.9 °F 19.9 °F 30.09 in East 2.7 mph 8 mph 88% 0.00 in W/m2
03:19 22.9 °F 19.9 °F 30.09 in East 2.9 mph 8 mph 88% 0.00 in W/m2
03:24 22.9 °F 19.9 °F 30.10 in East 2.9 mph 6 mph 88% 0.00 in W/m2
03:29 22.8 °F 19.8 °F 30.10 in ENE 2.9 mph 6 mph 88% 0.00 in W/m2
03:34 22.7 °F 19.7 °F 30.09 in East 2.9 mph 6 mph 88% 0.00 in W/m2
03:39 22.7 °F 19.7 °F 30.09 in East 3.1 mph 6 mph 88% 0.00 in W/m2
03:44 22.6 °F 19.6 °F 30.09 in East 2.9 mph 6 mph 88% 0.00 in W/m2
03:49 22.6 °F 19.6 °F 30.09 in East 2.2 mph 6 mph 88% 0.00 in W/m2
03:54 22.5 °F 19.5 °F 30.09 in ENE 3.1 mph 7 mph 88% 0.00 in W/m2
03:59 22.5 °F 19.5 °F 30.09 in ENE 3 mph 7 mph 88% 0.00 in W/m2
04:04 22.5 °F 19.5 °F 30.09 in East 3.2 mph 7 mph 88% 0.00 in W/m2
04:09 22.4 °F 19.4 °F 30.09 in East 3.1 mph 6 mph 88% 0.00 in W/m2
04:14 22.4 °F 19.4 °F 30.09 in East 3 mph 7 mph 88% 0.00 in W/m2
04:19 22.3 °F 19.3 °F 30.09 in East 2.1 mph 7 mph 88% 0.00 in W/m2
04:24 22.3 °F 19.3 °F 30.09 in East 2.4 mph 7 mph 88% 0.00 in W/m2
04:29 22.2 °F 19.2 °F 30.09 in East 2.4 mph 5 mph 88% 0.00 in W/m2
04:34 22.2 °F 19.2 °F 30.10 in East 2.9 mph 5 mph 88% 0.00 in W/m2
04:39 22.1 °F 19.1 °F 30.10 in East 2.1 mph 5 mph 88% 0.00 in W/m2
04:44 22 °F 19 °F 30.10 in East 2 mph 6 mph 88% 0.00 in W/m2
04:49 21.9 °F 18.9 °F 30.10 in ENE 2.4 mph 6 mph 88% 0.00 in W/m2
04:54 21.9 °F 18.9 °F 30.10 in ENE 1.7 mph 6 mph 88% 0.00 in W/m2
04:59 21.8 °F 18.8 °F 30.10 in ENE 1.3 mph 4 mph 88% 0.00 in W/m2
05:04 21.8 °F 18.8 °F 30.10 in ENE 1.9 mph 4 mph 88% 0.00 in W/m2
05:09 21.8 °F 18.8 °F 30.11 in ENE 2.3 mph 4 mph 88% 0.00 in W/m2
05:14 21.7 °F 18.7 °F 30.11 in ENE 2.6 mph 5 mph 88% 0.00 in W/m2
05:19 21.7 °F 18.7 °F 30.11 in East 2.2 mph 5 mph 88% 0.00 in W/m2
05:24 21.7 °F 18.7 °F 30.11 in East 2.4 mph 5 mph 88% 0.00 in W/m2
05:29 21.6 °F 18.6 °F 30.11 in East 1.6 mph 5 mph 88% 0.00 in W/m2
05:34 21.5 °F 18.5 °F 30.11 in East 1.7 mph 5 mph 88% 0.00 in W/m2
05:39 21.5 °F 18.5 °F 30.11 in East 1.5 mph 3 mph 88% 0.00 in W/m2
05:44 21.4 °F 18.4 °F 30.11 in East 2.3 mph 5 mph 88% 0.00 in W/m2
05:49 21.3 °F 18.3 °F 30.11 in East 2.4 mph 5 mph 88% 0.00 in W/m2
05:54 21.3 °F 18.3 °F 30.11 in East 2.1 mph 5 mph 88% 0.00 in W/m2
05:59 21.2 °F 18.2 °F 30.12 in ENE 1.9 mph 5 mph 88% 0.00 in W/m2
06:04 21.1 °F 18.1 °F 30.12 in ENE 2.7 mph 5 mph 88% 0.00 in W/m2
06:09 21.1 °F 18.1 °F 30.12 in ENE 2.1 mph 5 mph 88% 0.00 in W/m2
06:14 21 °F 18 °F 30.12 in ENE 2.8 mph 5 mph 88% 0.00 in W/m2
06:19 21 °F 17.8 °F 30.12 in ENE 2.7 mph 5 mph 87.6% 0.00 in W/m2
06:24 20.9 °F 17.6 °F 30.12 in East 3.2 mph 7 mph 87% 0.00 in W/m2
06:29 20.9 °F 17.6 °F 30.12 in East 2.4 mph 7 mph 87% 0.00 in W/m2
06:34 20.9 °F 17.6 °F 30.12 in East 2.3 mph 7 mph 87% 0.00 in W/m2
06:39 20.8 °F 17.6 °F 30.12 in East 2.2 mph 6 mph 87.1% 0.00 in W/m2
06:44 20.8 °F 17.5 °F 30.12 in NE 2.6 mph 6 mph 87% 0.00 in W/m2
06:49 20.7 °F 17.4 °F 30.12 in East 2.8 mph 6 mph 87% 0.00 in W/m2
06:54 20.7 °F 17.4 °F 30.12 in ENE 2.1 mph 6 mph 87% 0.00 in W/m2
06:59 20.7 °F 17.4 °F 30.13 in ENE 2 mph 6 mph 87% 0.00 in W/m2
07:04 20.7 °F 17.4 °F 30.13 in ENE 1.5 mph 4 mph 87% 0.00 in W/m2
07:09 20.7 °F 17.4 °F 30.13 in NE 2.7 mph 4 mph 87% 0.00 in W/m2
07:14 20.7 °F 17.4 °F 30.13 in NE 2.8 mph 5 mph 87% 0.00 in W/m2
07:19 20.7 °F 17.4 °F 30.13 in NE 2.2 mph 5 mph 87% 0.00 in W/m2
07:24 20.7 °F 17.4 °F 30.13 in NE 2 mph 5 mph 87% 0.00 in W/m2
07:29 20.7 °F 17.4 °F 30.13 in ENE 2.1 mph 5 mph 87% 0.00 in W/m2
07:34 20.7 °F 17.4 °F 30.12 in ENE 2.7 mph 6 mph 87% 0.00 in W/m2
07:39 20.7 °F 17.4 °F 30.12 in NE 2.2 mph 6 mph 87% 0.00 in W/m2
07:44 20.8 °F 17.5 °F 30.12 in NE 2.6 mph 7 mph 87% 0.00 in W/m2
07:49 20.8 °F 17.5 °F 30.13 in NE 2.2 mph 7 mph 87% 0.00 in W/m2
07:54 20.8 °F 17.5 °F 30.13 in NE 1.6 mph 7 mph 87% 0.00 in W/m2
07:59 20.8 °F 17.5 °F 30.13 in NE 2.4 mph 4 mph 87% 0.00 in W/m2
08:04 20.8 °F 17.5 °F 30.13 in NE 2.4 mph 4 mph 87% 0.00 in W/m2
08:09 20.9 °F 17.6 °F 30.13 in NE 2.1 mph 4 mph 87% 0.00 in W/m2
08:14 20.9 °F 17.6 °F 30.13 in NE 1.6 mph 4 mph 87% 0.00 in W/m2
08:19 20.9 °F 17.6 °F 30.13 in NE 1.4 mph 4 mph 87% 0.00 in W/m2
08:24 21 °F 17.7 °F 30.13 in NE 2 mph 4 mph 87% 0.00 in W/m2
08:29 21 °F 17.7 °F 30.13 in NE 2.1 mph 4 mph 87% 0.00 in W/m2
08:34 21.1 °F 17.8 °F 30.14 in NE 1.8 mph 4 mph 87% 0.00 in W/m2
08:39 21.2 °F 18 °F 30.14 in NE 3.1 mph 6 mph 87.4% 0.00 in W/m2
08:49 21.3 °F 18.3 °F 30.14 in NE 2 mph 6 mph 88% 0.00 in W/m2
08:54 21.4 °F 18.4 °F 30.14 in NE 2.6 mph 4 mph 88% 0.00 in W/m2
08:59 21.4 °F 18.4 °F 30.14 in NE 4 mph 8 mph 88% 0.00 in W/m2
09:04 21.5 °F 18.5 °F 30.14 in NE 3.8 mph 8 mph 88% 0.00 in W/m2
09:09 21.7 °F 18.7 °F 30.14 in NNE 4.6 mph 8 mph 88% 0.00 in W/m2
09:14 21.7 °F 18.7 °F 30.14 in NE 3 mph 7 mph 88% 0.00 in W/m2
09:19 21.9 °F 18.9 °F 30.14 in NE 3 mph 7 mph 88% 0.00 in W/m2
09:24 22 °F 19 °F 30.15 in NE 2.6 mph 7 mph 88% 0.00 in W/m2
09:29 22 °F 19 °F 30.15 in NE 2.7 mph 7 mph 88% 0.00 in W/m2
09:34 22.2 °F 19.2 °F 30.15 in NE 4.1 mph 8 mph 88% 0.00 in W/m2
09:39 22.3 °F 19.3 °F 30.15 in NE 3.8 mph 8 mph 88% 0.00 in W/m2
09:44 22.4 °F 19.4 °F 30.15 in NNE 2.9 mph 8 mph 88% 0.00 in W/m2
09:49 22.5 °F 19.5 °F 30.15 in NNE 2.9 mph 7 mph 88% 0.00 in W/m2
09:59 22.7 °F 19.7 °F 30.16 in NNE 3.2 mph 6 mph 88% 0.00 in W/m2
10:04 22.8 °F 19.8 °F 30.16 in NE 3 mph 6 mph 88% 0.00 in W/m2
10:09 22.9 °F 19.9 °F 30.16 in NE 3 mph 5 mph 88% 0.00 in W/m2
10:14 23 °F 20 °F 30.16 in NE 2.9 mph 5 mph 88% 0.00 in W/m2
10:19 23.1 °F 20.1 °F 30.16 in NNE 2.6 mph 6 mph 88% 0.00 in W/m2
10:24 23.1 °F 20.1 °F 30.17 in NE 2.9 mph 6 mph 88% 0.00 in W/m2
10:29 23.2 °F 20.2 °F 30.17 in NE 2.3 mph 6 mph 88% 0.00 in W/m2
10:34 23.3 °F 20.3 °F 30.17 in NE 3.5 mph 7 mph 88% 0.00 in W/m2
10:39 23.4 °F 20.4 °F 30.17 in NE 2.6 mph 7 mph 88% 0.00 in W/m2
10:44 23.5 °F 20.5 °F 30.17 in NE 3.4 mph 10 mph 88% 0.00 in W/m2
10:49 23.6 °F 20.6 °F 30.17 in NE 4.7 mph 10 mph 88% 0.00 in W/m2
10:54 23.6 °F 20.6 °F 30.17 in NE 5.2 mph 10 mph 88% 0.00 in W/m2
10:59 23.6 °F 20.6 °F 30.17 in NE 3.8 mph 9 mph 88% 0.00 in W/m2
11:04 23.6 °F 20.6 °F 30.17 in NE 5.3 mph 11 mph 88% 0.00 in W/m2
11:09 23.6 °F 20.6 °F 30.17 in NE 6.4 mph 11 mph 88% 0.00 in W/m2
11:14 23.5 °F 20.5 °F 30.17 in NE 5.1 mph 11 mph 88% 0.00 in W/m2
11:19 23.5 °F 20.5 °F 30.16 in NE 6.4 mph 10 mph 88% 0.00 in W/m2
11:24 23.4 °F 20.4 °F 30.16 in NE 5.5 mph 11 mph 88% 0.00 in W/m2
11:29 23.4 °F 20.4 °F 30.16 in NE 3.8 mph 11 mph 88% 0.00 in W/m2
11:34 23.4 °F 20.4 °F 30.16 in NNE 3.2 mph 11 mph 88% 0.00 in W/m2
11:39 23.4 °F 20.4 °F 30.16 in NNE 4.6 mph 9 mph 88% 0.00 in W/m2
11:44 23.4 °F 20.4 °F 30.16 in NNE 4.3 mph 9 mph 88% 0.00 in W/m2
11:49 23.3 °F 20.3 °F 30.16 in NE 3.5 mph 9 mph 88% 0.00 in W/m2
11:54 23.3 °F 20.3 °F 30.16 in NE 2.8 mph 9 mph 88% 0.00 in W/m2
11:59 23.3 °F 20.3 °F 30.17 in NE 6.1 mph 11 mph 88% 0.00 in W/m2
12:04 23.2 °F 20.2 °F 30.17 in NNE 3.5 mph 11 mph 88% 0.00 in W/m2
12:09 23.2 °F 20.2 °F 30.16 in NE 3.7 mph 11 mph 88% 0.00 in W/m2
12:14 23.3 °F 20.3 °F 30.16 in NE 4.5 mph 9 mph 88% 0.00 in W/m2
12:19 23.2 °F 20.2 °F 30.16 in NE 5.4 mph 9 mph 88% 0.00 in W/m2
12:24 23.2 °F 20.2 °F 30.16 in NNE 4.1 mph 9 mph 88% 0.00 in W/m2
12:29 23.2 °F 20.2 °F 30.16 in NE 4.3 mph 9 mph 88% 0.00 in W/m2
12:34 23.2 °F 20.3 °F 30.16 in NE 4.2 mph 8 mph 88.6% 0.00 in W/m2
12:39 23.2 °F 20.2 °F 30.16 in NE 4.1 mph 8 mph 88.1% 0.00 in W/m2
12:44 23.2 °F 20.3 °F 30.16 in NNE 2.8 mph 8 mph 88.3% 0.00 in W/m2
12:49 23.2 °F 20.3 °F 30.16 in NNE 3.3 mph 8 mph 88.6% 0.00 in W/m2
12:54 23.3 °F 20.5 °F 30.16 in NE 3.3 mph 8 mph 89% 0.00 in W/m2
12:59 23.3 °F 20.5 °F 30.16 in NE 3.5 mph 8 mph 89% 0.00 in W/m2
13:04 23.4 °F 20.6 °F 30.16 in NE 3.8 mph 10 mph 89% 0.00 in W/m2
13:09 23.4 °F 20.6 °F 30.17 in NE 3.9 mph 10 mph 89% 0.00 in W/m2
13:14 23.4 °F 20.6 °F 30.17 in NE 2.5 mph 10 mph 89% 0.00 in W/m2
13:19 23.4 °F 20.6 °F 30.17 in NNE 3.4 mph 8 mph 89% 0.00 in W/m2
13:24 23.4 °F 20.6 °F 30.17 in NE 4.1 mph 8 mph 89% 0.00 in W/m2
13:29 23.4 °F 20.6 °F 30.17 in NE 4.4 mph 8 mph 89% 0.00 in W/m2
13:34 23.4 °F 20.6 °F 30.17 in NE 3.3 mph 8 mph 89% 0.00 in W/m2
13:39 23.5 °F 20.7 °F 30.17 in NE 3.7 mph 7 mph 89% 0.00 in W/m2
13:44 23.5 °F 20.7 °F 30.17 in NE 4.3 mph 8 mph 89% 0.00 in W/m2
13:49 23.5 °F 20.7 °F 30.17 in NNE 2.5 mph 8 mph 89% 0.00 in W/m2
13:54 23.5 °F 20.7 °F 30.17 in NE 3 mph 8 mph 89% 0.00 in W/m2
13:59 23.5 °F 20.7 °F 30.17 in NE 2.7 mph 5 mph 89% 0.00 in W/m2
14:04 23.6 °F 20.8 °F 30.17 in NE 3.7 mph 7 mph 89% 0.00 in W/m2
14:09 23.6 °F 20.8 °F 30.16 in NE 3.8 mph 7 mph 89% 0.00 in W/m2
14:14 23.7 °F 20.9 °F 30.16 in NE 4.7 mph 8 mph 89% 0.00 in W/m2
14:19 23.6 °F 20.8 °F 30.16 in NE 3.3 mph 8 mph 89% 0.00 in W/m2
14:24 23.6 °F 20.8 °F 30.16 in NNE 4.1 mph 9 mph 89% 0.00 in W/m2
14:29 23.6 °F 20.8 °F 30.17 in NE 4 mph 9 mph 89% 0.00 in W/m2
14:34 23.4 °F 20.6 °F 30.17 in NNE 2.5 mph 9 mph 88.8% 0.00 in W/m2
14:39 23.4 °F 20.6 °F 30.17 in NE 4.1 mph 8 mph 89% 0.00 in W/m2
14:44 23.3 °F 20.5 °F 30.17 in NE 3.2 mph 8 mph 89% 0.00 in W/m2
14:49 23.4 °F 20.6 °F 30.17 in ENE 2.1 mph 7 mph 89% 0.00 in W/m2
14:54 23.4 °F 20.6 °F 30.17 in NE 2.6 mph 7 mph 89% 0.00 in W/m2
14:59 23.4 °F 20.6 °F 30.18 in NE 2.4 mph 4 mph 89% 0.00 in W/m2
15:04 23.4 °F 20.6 °F 30.18 in NE 2.6 mph 6 mph 89% 0.00 in W/m2
15:09 23.4 °F 20.4 °F 30.18 in NNE 3.7 mph 7 mph 88.3% 0.00 in W/m2
15:14 23.2 °F 20.2 °F 30.18 in NE 2.6 mph 7 mph 88% 0.00 in W/m2
15:19 23.2 °F 20.3 °F 30.18 in NE 3.9 mph 7 mph 88.8% 0.00 in W/m2
15:24 23.1 °F 20.3 °F 30.19 in NE 3.8 mph 7 mph 89% 0.00 in W/m2
15:29 23.1 °F 20.3 °F 30.19 in NE 3.7 mph 7 mph 89% 0.00 in W/m2
15:34 23 °F 20.2 °F 30.19 in NE 3.8 mph 7 mph 89% 0.00 in W/m2
15:44 22.9 °F 20.1 °F 30.19 in NE 3.1 mph 7 mph 89% 0.00 in W/m2
15:49 22.9 °F 20.1 °F 30.19 in NE 3.6 mph 7 mph 89% 0.00 in W/m2
15:54 22.9 °F 20.1 °F 30.19 in NE 3.3 mph 7 mph 89% 0.00 in W/m2
15:59 22.9 °F 20.1 °F 30.19 in NNE 3 mph 7 mph 89% 0.00 in W/m2
16:04 22.9 °F 20.1 °F 30.19 in NE 2 mph 6 mph 89% 0.00 in W/m2
16:09 22.9 °F 20.1 °F 30.19 in NE 2.8 mph 6 mph 89% 0.00 in W/m2
16:14 22.9 °F 20 °F 30.19 in NE 4 mph 6 mph 88.8% 0.00 in W/m2
16:19 22.8 °F 19.8 °F 30.19 in NNE 3 mph 6 mph 88% 0.00 in W/m2
16:29 22.8 °F 19.8 °F 30.19 in NE 2.5 mph 6 mph 88% 0.00 in W/m2
16:34 22.8 °F 19.8 °F 30.20 in NNE 2.5 mph 5 mph 88% 0.00 in W/m2
16:39 22.8 °F 19.8 °F 30.20 in NNE 2.1 mph 5 mph 88% 0.00 in W/m2
16:44 22.8 °F 19.8 °F 30.20 in NNE 1.9 mph 4 mph 88% 0.00 in W/m2
16:49 22.7 °F 19.7 °F 30.20 in NNE 1.7 mph 4 mph 88% 0.00 in W/m2
16:54 22.7 °F 19.7 °F 30.20 in North 3.3 mph 6 mph 88% 0.00 in W/m2
16:59 22.7 °F 19.7 °F 30.20 in NNE 2.6 mph 6 mph 88% 0.00 in W/m2
17:04 22.7 °F 19.7 °F 30.20 in NE 3.4 mph 7 mph 88% 0.00 in W/m2
17:09 22.6 °F 19.6 °F 30.21 in NNE 3.6 mph 7 mph 88% 0.00 in W/m2
17:14 22.6 °F 19.6 °F 30.21 in NE 3.5 mph 8 mph 88% 0.00 in W/m2
17:19 22.6 °F 19.6 °F 30.21 in NE 2.9 mph 8 mph 88% 0.00 in W/m2
17:24 22.6 °F 19.6 °F 30.21 in NE 3.1 mph 8 mph 88% 0.00 in W/m2
17:29 22.6 °F 19.6 °F 30.21 in NE 2.5 mph 6 mph 88% 0.00 in W/m2
17:34 22.6 °F 19.6 °F 30.22 in NNE 3 mph 8 mph 88% 0.00 in W/m2
17:39 22.6 °F 19.6 °F 30.22 in NNE 2.2 mph 8 mph 88% 0.00 in W/m2
17:44 22.5 °F 19.5 °F 30.22 in NNE 1.7 mph 8 mph 88% 0.00 in W/m2
17:49 22.5 °F 19.5 °F 30.23 in NNE 2 mph 4 mph 88% 0.00 in W/m2
17:54 22.5 °F 19.5 °F 30.23 in NNE 1.6 mph 4 mph 88% 0.00 in W/m2
17:59 22.5 °F 19.5 °F 30.23 in NE 2.4 mph 5 mph 88% 0.00 in W/m2
18:04 22.5 °F 19.5 °F 30.23 in NE 2.7 mph 5 mph 88% 0.00 in W/m2
18:09 22.5 °F 19.5 °F 30.23 in NE 2.2 mph 5 mph 88% 0.00 in W/m2
18:14 22.5 °F 19.5 °F 30.24 in NE 2.1 mph 5 mph 88% 0.00 in W/m2
18:19 22.5 °F 19.5 °F 30.24 in NE 2.3 mph 4 mph 88% 0.00 in W/m2
18:24 22.5 °F 19.5 °F 30.24 in NE 2 mph 5 mph 88% 0.00 in W/m2
18:29 22.4 °F 19.4 °F 30.24 in NE 3.1 mph 6 mph 88% 0.00 in W/m2
18:34 22.4 °F 19.4 °F 30.25 in NE 3.3 mph 7 mph 88% 0.00 in W/m2
18:39 22.4 °F 19.4 °F 30.25 in NE 2.5 mph 7 mph 88% 0.00 in W/m2
18:44 22.4 °F 19.4 °F 30.25 in NE 1.9 mph 7 mph 88% 0.00 in W/m2
18:49 22.4 °F 19.4 °F 30.25 in North 2 mph 5 mph 88% 0.00 in W/m2
18:54 22.4 °F 19.4 °F 30.25 in NNW 2.2 mph 4 mph 88% 0.00 in W/m2
18:59 22.4 °F 19.4 °F 30.25 in NNW 1.9 mph 5 mph 88% 0.00 in W/m2
19:04 22.4 °F 19.4 °F 30.25 in NNW 1.6 mph 5 mph 88% 0.00 in W/m2
19:09 22.4 °F 19.4 °F 30.26 in NNW 2.2 mph 5 mph 88% 0.00 in W/m2
19:14 22.4 °F 19.4 °F 30.26 in NNW 1.8 mph 5 mph 88% 0.00 in W/m2
19:19 22.4 °F 19.3 °F 30.26 in NNW 1.7 mph 5 mph 87.8% 0.00 in W/m2
19:24 22.4 °F 19.2 °F 30.26 in NNW 1.5 mph 3 mph 87.4% 0.00 in W/m2
19:29 22.4 °F 19.1 °F 30.26 in NNW 0.8 mph 3 mph 87.1% 0.00 in W/m2
19:34 22.4 °F 19.1 °F 30.26 in NNW 1.8 mph 4 mph 87% 0.00 in W/m2
19:39 22.4 °F 19.1 °F 30.26 in NNW 1.6 mph 4 mph 87% 0.00 in W/m2
19:44 22.4 °F 19.1 °F 30.27 in NNW 1.7 mph 4 mph 87% 0.00 in W/m2
19:49 22.4 °F 19.1 °F 30.27 in NNW 1.8 mph 4 mph 87% 0.00 in W/m2
19:54 22.4 °F 19.1 °F 30.27 in NNW 1.5 mph 4 mph 87% 0.00 in W/m2
19:59 22.4 °F 19.1 °F 30.27 in NNW 0.9 mph 4 mph 87% 0.00 in W/m2
20:04 22.4 °F 19.1 °F 30.27 in NNW 2 mph 4 mph 87% 0.00 in W/m2
20:09 22.4 °F 19.1 °F 30.27 in NNW 1.6 mph 4 mph 87% 0.00 in W/m2
20:14 22.5 °F 19.2 °F 30.26 in NNW 1 mph 4 mph 87% 0.00 in W/m2
20:19 22.5 °F 19.2 °F 30.26 in NNW 1.8 mph 3 mph 87% 0.00 in W/m2
20:24 22.5 °F 19.2 °F 30.26 in NNW 1.3 mph 3 mph 87% 0.00 in W/m2
20:29 22.5 °F 19.2 °F 30.26 in NNW 1.3 mph 4 mph 87% 0.00 in W/m2
20:34 22.5 °F 19.2 °F 30.26 in North 2.7 mph 5 mph 87% 0.00 in W/m2
20:39 22.5 °F 19.2 °F 30.26 in NE 2.7 mph 6 mph 87% 0.00 in W/m2
20:44 22.5 °F 19.2 °F 30.26 in NE 1.4 mph 6 mph 87% 0.00 in W/m2
20:49 22.5 °F 19.2 °F 30.27 in NE 1.5 mph 6 mph 87% 0.00 in W/m2
20:54 22.5 °F 19.2 °F 30.27 in NE 1.7 mph 4 mph 87% 0.00 in W/m2
20:59 22.5 °F 19.2 °F 30.27 in NE 1.5 mph 4 mph 87% 0.00 in W/m2
21:04 22.5 °F 19.2 °F 30.27 in North 2.7 mph 4 mph 87% 0.00 in W/m2
21:09 22.6 °F 19.3 °F 30.27 in North 1.6 mph 4 mph 87% 0.00 in W/m2
21:14 22.6 °F 19.3 °F 30.27 in North 1.9 mph 5 mph 87% 0.00 in W/m2
21:19 22.6 °F 19.3 °F 30.27 in NNE 2.7 mph 5 mph 87% 0.00 in W/m2
21:24 22.6 °F 19.3 °F 30.27 in NNE 2.3 mph 5 mph 87% 0.00 in W/m2
21:29 22.7 °F 19.4 °F 30.27 in NNE 3.5 mph 5 mph 87% 0.00 in W/m2
21:34 22.7 °F 19.4 °F 30.27 in NE 2.7 mph 5 mph 87% 0.00 in W/m2
21:39 22.7 °F 19.4 °F 30.27 in NE 2.3 mph 5 mph 87% 0.00 in W/m2
21:44 22.7 °F 19.4 °F 30.27 in NE 2.2 mph 5 mph 87% 0.00 in W/m2
21:49 22.7 °F 19.4 °F 30.27 in NE 2.5 mph 6 mph 87% 0.00 in W/m2
21:54 22.8 °F 19.5 °F 30.27 in NE 1.6 mph 6 mph 87% 0.00 in W/m2
21:59 22.9 °F 19.6 °F 30.27 in NE 1.3 mph 6 mph 87% 0.00 in W/m2
22:04 22.9 °F 19.6 °F 30.27 in NE 1.3 mph 3 mph 87% 0.00 in W/m2
22:09 22.9 °F 19.6 °F 30.27 in NE 2.4 mph 8 mph 87% 0.00 in W/m2
22:14 23 °F 19.7 °F 30.27 in NE 2.8 mph 8 mph 87% 0.00 in W/m2
22:19 23.1 °F 19.8 °F 30.27 in NE 2.2 mph 8 mph 87% 0.00 in W/m2
22:24 23.1 °F 19.8 °F 30.27 in NE 1.8 mph 7 mph 87% 0.00 in W/m2
22:29 23.2 °F 19.8 °F 30.28 in NE 2.1 mph 4 mph 86.8% 0.00 in W/m2
22:34 23.2 °F 19.6 °F 30.28 in NNE 2.1 mph 5 mph 86% 0.00 in W/m2
22:39 23.3 °F 20 °F 30.28 in NE 2.2 mph 5 mph 87% 0.00 in W/m2
22:44 23.3 °F 19.8 °F 30.28 in NE 2.4 mph 5 mph 86.3% 0.00 in W/m2
22:49 23.3 °F 19.7 °F 30.29 in NE 2.7 mph 5 mph 86% 0.00 in W/m2
22:54 23.3 °F 19.7 °F 30.29 in NE 2.1 mph 5 mph 86% 0.00 in W/m2
22:59 23.4 °F 19.8 °F 30.29 in NE 1.8 mph 5 mph 86% 0.00 in W/m2
23:04 23.4 °F 19.8 °F 30.29 in NE 1.3 mph 4 mph 86% 0.00 in W/m2
23:09 23.4 °F 19.8 °F 30.29 in NE 1.6 mph 3 mph 86% 0.00 in W/m2
23:14 23.4 °F 19.8 °F 30.29 in NE 1.7 mph 3 mph 86% 0.00 in W/m2
23:19 23.4 °F 19.8 °F 30.29 in NE 1.2 mph 3 mph 86% 0.00 in W/m2
23:24 23.4 °F 19.8 °F 30.29 in NE 1.2 mph 3 mph 86% 0.00 in W/m2
23:29 23.4 °F 19.8 °F 30.29 in NE 0.9 mph 2 mph 86% 0.00 in W/m2
23:34 23.5 °F 19.9 °F 30.30 in NE 0.8 mph 2 mph 86% 0.00 in W/m2
23:39 23.5 °F 19.9 °F 30.30 in NE 0.3 mph 2 mph 86% 0.00 in W/m2
23:44 23.5 °F 19.9 °F 30.30 in NE 1 mph 3 mph 86% 0.00 in W/m2
23:49 23.4 °F 19.8 °F 30.30 in NE 1.6 mph 4 mph 86% 0.00 in W/m2
23:54 23.4 °F 19.8 °F 30.30 in NE 0.7 mph 4 mph 86% 0.00 in W/m2
23:59 23.4 °F 19.8 °F 30.29 in NE 0.8 mph 4 mph 86% 0.00 in W/m2
Lockport, New York, USA
Compliments of Weather Underground - 2.75 mb